| time (UTC) | temp F | wind direction | speed knots | gust knots | rain 1hr in | rain 24hr in | rain mn in | humidity % | barometer mb |
| 20260906192948 | 98 | 188 | 2.6 | 7.8 | 0.00 | 0.00 | 0.00 | 36 | 1015.8 |
| 20260906191948 | 101 | 136 | 4.3 | 9.6 | 0.00 | 0.00 | 0.00 | 35 | 1015.9 |
| 20260906190947 | 98 | 188 | 4.3 | 7.0 | 0.00 | 0.00 | 0.00 | 37 | 1016.0 |
| 20260906185948 | 97 | 245 | 3.5 | 4.3 | 0.00 | 0.00 | 0.00 | 39 | 1016.1 |
| 20260906184946 | 97 | 43 | 3.5 | 5.2 | 0.00 | 0.00 | 0.00 | 39 | 1016.5 |
| 20260906183942 | 97 | 165 | 0.9 | 4.3 | 0.00 | 0.00 | 0.00 | 40 | 1016.6 |
| 20260906182940 | 99 | 39 | 1.7 | 4.3 | 0.00 | 0.00 | 0.00 | 38 | 1016.9 |
| 20260906181937 | 99 | 328 | 0.0 | 5.2 | 0.00 | 0.00 | 0.00 | 38 | 1017.1 |
| 20260906180934 | 96 | 353 | 1.7 | 7.0 | 0.00 | 0.00 | 0.00 | 40 | 1017.2 |
| 20260906175932 | 98 | 186 | 4.3 | 7.8 | 0.00 | 0.00 | 0.00 | 39 | 1017.3 |
| 20260906174931 | 97 | 359 | 2.6 | 6.1 | 0.00 | 0.00 | 0.00 | 40 | 1017.5 |
| 20260906173927 | 96 | 261 | 2.6 | 4.3 | 0.00 | 0.00 | 0.00 | 41 | 1017.8 |
| 20260906172927 | 96 | 356 | 3.5 | 7.0 | 0.00 | 0.00 | 0.00 | 41 | 1017.9 |
| 20260906171924 | 96 | 305 | 2.6 | 7.0 | 0.00 | 0.00 | 0.00 | 43 | 1018.2 |
| 20260906170920 | 94 | 9 | 4.3 | 9.6 | 0.00 | 0.00 | 0.00 | 45 | 1018.7 |
| 20260906165919 | 93 | 315 | 3.5 | 8.7 | 0.00 | 0.00 | 0.00 | 46 | 1018.8 |
| 20260906164920 | 93 | 317 | 3.5 | 11.3 | 0.00 | 0.00 | 0.00 | 45 | 1018.5 |
| 20260906163915 | 96 | 296 | 3.5 | 7.0 | 0.00 | 0.00 | 0.00 | 42 | 1018.4 |
| 20260906162914 | 95 | 261 | 6.1 | 8.7 | 0.00 | 0.00 | 0.00 | 42 | 1018.7 |
| 20260906161914 | 94 | 239 | 5.2 | 6.1 | 0.00 | 0.00 | 0.00 | 44 | 1018.9 |
| 20260906160912 | 94 | 231 | 4.3 | 7.0 | 0.00 | 0.00 | 0.00 | 44 | 1018.8 |
| 20260906155910 | 95 | 260 | 6.1 | 8.7 | 0.00 | 0.00 | 0.00 | 43 | 1018.4 |
| 20260906154907 | 93 | 269 | 3.5 | 7.0 | 0.00 | 0.00 | 0.00 | 46 | 1018.5 |
| 20260906153906 | 92 | 260 | 6.1 | 7.8 | 0.00 | 0.00 | 0.00 | 47 | 1018.3 |
| 20260906152900 | 91 | 259 | 7.0 | 10.4 | 0.00 | 0.00 | 0.00 | 47 | 1018.3 |
| 20260906151859 | 91 | 240 | 4.3 | 7.8 | 0.00 | 0.00 | 0.00 | 47 | 1018.4 |
| 20260906150857 | 91 | 209 | 1.7 | 5.2 | 0.00 | 0.00 | 0.00 | 48 | 1018.4 |
| 20260906145851 | 90 | 220 | 1.7 | 4.3 | 0.00 | 0.00 | 0.00 | 49 | 1018.2 |
| 20260906144851 | 89 | 251 | 3.5 | 4.3 | 0.00 | 0.00 | 0.00 | 50 | 1018.2 |
| 20260906143846 | 89 | 165 | 3.5 | 6.1 | 0.00 | 0.00 | 0.00 | 52 | 1018.2 |
| 20260906142844 | 87 | 164 | 1.7 | 4.3 | 0.00 | 0.00 | 0.00 | 55 | 1018.1 |
| 20260906141838 | 86 | 179 | 0.9 | 3.5 | 0.00 | 0.00 | 0.00 | 57 | 1018.4 |
| 20260906140838 | 86 | 136 | 1.7 | 4.3 | 0.00 | 0.00 | 0.00 | 57 | 1018.3 |
| 20260906135836 | 85 | 185 | 1.7 | 7.0 | 0.00 | 0.00 | 0.00 | 58 | 1018.1 |
| 20260906134832 | 84 | 117 | 1.7 | 5.2 | 0.00 | 0.00 | 0.00 | 60 | 1018.2 |
| 20260906133828 | 83 | 132 | 1.7 | 4.3 | 0.00 | 0.00 | 0.00 | 62 | 1018.1 |
| 20260906132825 | 81 | 174 | 1.7 | 3.5 | 0.00 | 0.00 | 0.00 | 65 | 1018.0 |
| 20260906131822 | 81 | 136 | 0.0 | 2.6 | 0.00 | 0.00 | 0.00 | 65 | 1017.9 |
| 20260906130819 | 80 | 149 | 1.7 | 2.6 | 0.00 | 0.00 | 0.00 | 66 | 1017.8 |
| 20260906125817 | 79 | 128 | 2.6 | 4.3 | 0.00 | 0.00 | 0.00 | 68 | 1017.6 |
| 20260906124815 | 77 | 136 | 1.7 | 2.6 | 0.00 | 0.00 | 0.00 | 70 | 1017.4 |
| 20260906123810 | 75 | 132 | 0.0 | 2.6 | 0.00 | 0.00 | 0.00 | 73 | 1017.4 |
| 20260906122805 | 74 | 111 | 1.7 | 2.6 | 0.00 | 0.00 | 0.00 | 76 | 1017.4 |
| 20260906121803 | 73 | 75 | 0.0 | 0.9 | 0.00 | 0.00 | 0.00 | 76 | 1017.0 |
| 20260906120800 | 73 | 104 | 0.9 | 1.7 | 0.00 | 0.00 | 0.00 | 76 | 1017.0 |
| 20260906115758 | 73 | 93 | 0.0 | 1.7 | 0.00 | 0.00 | 0.00 | 77 | 1016.6 |
| 20260906114758 | 73 | 93 | 0.9 | 1.7 | 0.00 | 0.00 | 0.00 | 76 | 1016.7 |
| 20260906113755 | 73 | 104 | 0.9 | 1.7 | 0.00 | 0.00 | 0.00 | 76 | 1016.6 |
| 20260906112754 | 74 | 87 | 0.9 | 1.7 | 0.00 | 0.00 | 0.00 | 75 | 1016.5 |
| 20260906111750 | 74 | 121 | 1.7 | 2.6 | 0.00 | 0.00 | 0.00 | 75 | 1016.5 |
| 20260906110751 | 72 | 89 | 0.0 | 1.7 | 0.00 | 0.00 | 0.00 | 79 | 1016.4 |
| 20260906105745 | 71 | 56 | 0.0 | 1.7 | 0.00 | 0.00 | 0.00 | 80 | 1016.1 |
| 20260906104742 | 71 | 172 | 0.0 | 0.9 | 0.00 | 0.00 | 0.00 | 79 | 1016.4 |
| 20260906103739 | 71 | 117 | 0.0 | 1.7 | 0.00 | 0.00 | 0.00 | 78 | 1016.4 |
| 20260906102735 | 72 | 96 | 1.7 | 2.6 | 0.00 | 0.00 | 0.00 | 77 | 1016.4 |
| 20260906101736 | 72 | 84 | 0.0 | 1.7 | 0.00 | 0.00 | 0.00 | 77 | 1016.7 |
| 20260906100731 | 72 | 50 | 0.0 | 0.9 | 0.00 | 0.00 | 0.00 | 78 | 1016.5 |
| 20260906095726 | 72 | 39 | 0.9 | 1.7 | 0.00 | 0.00 | 0.00 | 78 | 1016.5 |
| 20260906094726 | 73 | 55 | 0.0 | 1.7 | 0.00 | 0.00 | 0.00 | 77 | 1016.6 |
| 20260906093724 | 73 | 64 | 0.9 | 1.7 | 0.00 | 0.00 | 0.00 | 76 | 1016.7 |
| 20260906092720 | 74 | 25 | 0.0 | 0.9 | 0.00 | 0.00 | 0.00 | 75 | 1016.3 |
| 20260906091716 | 74 | 269 | 0.9 | 1.7 | 0.00 | 0.00 | 0.00 | 74 | 1016.5 |
| 20260906090714 | 76 | 199 | 0.0 | 2.6 | 0.00 | 0.00 | 0.00 | 71 | 1016.4 |
| 20260906085712 | 76 | 268 | 5.2 | 6.1 | 0.00 | 0.00 | 0.00 | 72 | 1016.4 |
| 20260906084712 | 77 | 132 | 2.6 | 2.6 | 0.00 | 0.00 | 0.00 | 68 | 1016.1 |
| 20260906083707 | 77 | 168 | 0.9 | 2.6 | 0.00 | 0.00 | 0.00 | 69 | 1016.0 |
| 20260906082704 | 76 | 107 | 1.7 | 2.6 | 0.00 | 0.00 | 0.00 | 70 | 1015.9 |
| 20260906081701 | 76 | 110 | 2.6 | 2.6 | 0.00 | 0.00 | 0.00 | 69 | 1016.1 |
| 20260906080658 | 77 | 111 | 1.7 | 2.6 | 0.00 | 0.00 | 0.00 | 68 | 1016.1 |
| 20260906075653 | 78 | 117 | 1.7 | 2.6 | 0.00 | 0.00 | 0.00 | 67 | 1016.1 |
| 20260906074649 | 78 | 122 | 0.9 | 2.6 | 0.00 | 0.00 | 0.00 | 66 | 1016.0 |
| 20260906073649 | 78 | 159 | 1.7 | 3.5 | 0.00 | 0.00 | 0.00 | 66 | 1016.1 |
| 20260906072646 | 78 | 131 | 0.9 | 1.7 | 0.00 | 0.00 | 0.00 | 66 | 1015.8 |
| 20260906071644 | 77 | 113 | 1.7 | 2.6 | 0.00 | 0.00 | 0.00 | 67 | 1015.8 |
| 20260906070640 | 77 | 111 | 1.7 | 2.6 | 0.00 | 0.00 | 0.00 | 68 | 1015.7 |
| 20260906065635 | 77 | 100 | 1.7 | 2.6 | 0.00 | 0.00 | 0.00 | 67 | 1015.8 |
| 20260906064631 | 78 | 120 | 2.6 | 3.5 | 0.00 | 0.00 | 0.00 | 65 | 1015.7 |
| 20260906063627 | 79 | 86 | 1.7 | 2.6 | 0.00 | 0.00 | 0.00 | 64 | 1015.8 |
| 20260906062625 | 79 | 137 | 1.7 | 2.6 | 0.00 | 0.00 | 0.00 | 64 | 1015.6 |
| 20260906061625 | 78 | 156 | 0.9 | 2.6 | 0.00 | 0.00 | 0.00 | 65 | 1015.7 |
| 20260906060621 | 79 | 129 | 1.7 | 2.6 | 0.00 | 0.00 | 0.00 | 64 | 1015.7 |
| 20260906055620 | 78 | 141 | 0.9 | 1.7 | 0.00 | 0.00 | 0.00 | 65 | 1015.7 |
| 20260906054616 | 79 | 131 | 0.9 | 2.6 | 0.00 | 0.00 | 0.00 | 64 | 1016.0 |
| 20260906053613 | 80 | 114 | 1.7 | 2.6 | 0.00 | 0.00 | 0.00 | 62 | 1015.7 |
| 20260906052609 | 79 | 140 | 0.9 | 3.5 | 0.00 | 0.00 | 0.00 | 63 | 1015.9 |
| 20260906051608 | 78 | 120 | 1.7 | 3.5 | 0.00 | 0.00 | 0.00 | 65 | 1015.8 |
| 20260906050604 | 80 | 115 | 2.6 | 3.5 | 0.00 | 0.00 | 0.00 | 62 | 1015.7 |
| 20260906045603 | 82 | 123 | 1.7 | 3.5 | 0.00 | 0.00 | 0.00 | 59 | 1015.7 |
| 20260906044600 | 81 | 137 | 1.7 | 2.6 | 0.00 | 0.00 | 0.00 | 61 | 1015.7 |
| 20260906043557 | 80 | 230 | 0.0 | 0.9 | 0.00 | 0.00 | 0.00 | 62 | 1015.8 |
| 20260906042557 | 82 | 111 | 1.7 | 2.6 | 0.00 | 0.00 | 0.00 | 58 | 1015.8 |
| 20260906041554 | 83 | 137 | 1.7 | 3.5 | 0.00 | 0.00 | 0.00 | 57 | 1015.4 |
| 20260906040549 | 83 | 98 | 0.0 | 4.3 | 0.00 | 0.00 | 0.00 | 57 | 1015.6 |
| 20260906035546 | 83 | 137 | 0.0 | 0.9 | 0.00 | 0.00 | 0.00 | 57 | 1015.6 |
| 20260906034542 | 83 | 132 | 1.7 | 2.6 | 0.00 | 0.00 | 0.00 | 57 | 1015.5 |
| 20260906033538 | 84 | 180 | 0.0 | 0.9 | 0.00 | 0.00 | 0.00 | 57 | 1015.6 |
| 20260906032535 | 84 | 104 | 0.9 | 3.5 | 0.00 | 0.00 | 0.00 | 56 | 1015.3 |
| 20260906031532 | 84 | 178 | 0.9 | 1.7 | 0.00 | 0.00 | 0.00 | 55 | 1015.2 |
| 20260906030526 | 84 | 111 | 1.7 | 2.6 | 0.00 | 0.00 | 0.00 | 55 | 1014.9 |
| 20260906025526 | 86 | 173 | 1.7 | 2.6 | 0.00 | 0.00 | 0.00 | 53 | 1014.8 |
| 20260906024525 | 86 | 166 | 0.0 | 2.6 | 0.00 | 0.00 | 0.00 | 52 | 1015.0 |
| 20260906023521 | 86 | 202 | 0.0 | 2.6 | 0.00 | 0.00 | 0.00 | 51 | 1014.9 |
| 20260906022517 | 87 | 151 | 1.7 | 3.5 | 0.00 | 0.00 | 0.00 | 49 | 1014.9 |
| 20260906021514 | 88 | 152 | 1.7 | 3.5 | 0.00 | 0.00 | 0.00 | 49 | 1014.7 |
| 20260906020513 | 88 | 152 | 3.5 | 4.3 | 0.00 | 0.00 | 0.00 | 48 | 1014.5 |
| 20260906015512 | 89 | 134 | 3.5 | 5.2 | 0.00 | 0.00 | 0.00 | 47 | 1014.2 |
| 20260906014507 | 89 | 143 | 2.6 | 7.0 | 0.00 | 0.00 | 0.00 | 47 | 1014.1 |
| 20260906013503 | 89 | 210 | 0.9 | 3.5 | 0.00 | 0.00 | 0.00 | 46 | 1014.2 |
| 20260906012500 | 90 | 177 | 0.9 | 3.5 | 0.00 | 0.00 | 0.00 | 46 | 1013.8 |
| 20260906011455 | 90 | 178 | 0.0 | 1.7 | 0.00 | 0.00 | 0.00 | 45 | 1014.2 |
| 20260906010451 | 91 | 181 | 0.0 | 1.7 | 0.00 | 0.00 | 0.00 | 44 | 1014.1 |
| 20260906005447 | 92 | 144 | 0.9 | 2.6 | 0.00 | 0.00 | 0.00 | 43 | 1013.8 |
| 20260906004445 | 92 | 164 | 0.0 | 2.6 | 0.00 | 0.00 | 0.00 | 43 | 1014.0 |
| 20260906003441 | 93 | 309 | 0.0 | 1.7 | 0.00 | 0.00 | 0.00 | 42 | 1014.3 |
| 20260906002436 | 93 | 176 | 0.0 | 2.6 | 0.00 | 0.00 | 0.00 | 41 | 1013.8 |
| 20260906001433 | 94 | 230 | 0.0 | 3.5 | 0.00 | 0.00 | 0.00 | 41 | 1014.0 |
| 20260906000429 | 95 | 152 | 2.6 | 4.3 | 0.00 | 0.00 | 0.00 | 40 | 1014.2 |
| 20260905235424 | 95 | 180 | 1.7 | 5.2 | 0.00 | 0.00 | 0.00 | 39 | 1014.1 |
| 20260905234420 | 96 | 217 | 1.7 | 6.1 | 0.00 | 0.00 | 0.00 | 39 | 1014.0 |
| 20260905233416 | 96 | 164 | 3.5 | 4.3 | 0.00 | 0.00 | 0.00 | 38 | 1014.0 |
| 20260905232411 | 96 | 182 | 3.5 | 5.2 | 0.00 | 0.00 | 0.00 | 38 | 1014.0 |
| 20260905231408 | 97 | 168 | 2.6 | 4.3 | 0.00 | 0.00 | 0.00 | 38 | 1014.0 |
| 20260905230408 | 97 | 154 | 0.0 | 6.1 | 0.00 | 0.00 | 0.00 | 38 | 1014.1 |
| 20260905225408 | 98 | 172 | 3.5 | 4.3 | 0.00 | 0.00 | 0.00 | 36 | 1014.0 |
| 20260905224405 | 98 | 147 | 3.5 | 5.2 | 0.00 | 0.00 | 0.00 | 38 | 1014.1 |
| 20260905223403 | 99 | 137 | 3.5 | 7.0 | 0.00 | 0.00 | 0.00 | 36 | 1013.7 |
| 20260905222402 | 99 | 178 | 2.6 | 6.1 | 0.00 | 0.00 | 0.00 | 36 | 1014.0 |
| 20260905221400 | 98 | 152 | 3.5 | 6.1 | 0.00 | 0.00 | 0.00 | 38 | 1014.1 |
| 20260905220358 | 99 | 140 | 7.8 | 10.4 | 0.00 | 0.00 | 0.00 | 37 | 1014.1 |
| 20260905215353 | 100 | 162 | 6.1 | 12.2 | 0.00 | 0.00 | 0.00 | 36 | 1013.6 |
| 20260905214350 | 102 | 204 | 0.0 | 10.4 | 0.00 | 0.00 | 0.00 | 35 | 1014.1 |
| 20260905213347 | 101 | 125 | 12.2 | 12.2 | 0.00 | 0.00 | 0.00 | 35 | 1014.1 |
| 20260905212347 | 100 | 157 | 3.5 | 7.8 | 0.00 | 0.00 | 0.00 | 35 | 1014.2 |
| 20260905211343 | 103 | 169 | 4.3 | 9.6 | 0.00 | 0.00 | 0.00 | 34 | 1014.3 |
| 20260905210339 | 102 | 204 | 5.2 | 8.7 | 0.00 | 0.00 | 0.00 | 36 | 1013.8 |
| 20260905205339 | 101 | 135 | 5.2 | 7.8 | 0.00 | 0.00 | 0.00 | 36 | 1014.3 |
| 20260905204334 | 101 | 166 | 5.2 | 11.3 | 0.00 | 0.00 | 0.00 | 37 | 1014.1 |
| 20260905203329 | 100 | 191 | 4.3 | 14.8 | 0.00 | 0.00 | 0.00 | 37 | 1014.4 |
| 20260905202325 | 102 | 158 | 7.0 | 13.0 | 0.00 | 0.00 | 0.00 | 36 | 1014.5 |
| 20260905201322 | 101 | 175 | 4.3 | 13.0 | 0.00 | 0.00 | 0.00 | 37 | 1014.7 |
| 20260905200318 | 100 | 155 | 6.1 | 15.6 | 0.00 | 0.00 | 0.00 | 38 | 1014.9 |
| 20260905195317 | 102 | 148 | 1.7 | 8.7 | 0.00 | 0.00 | 0.00 | 37 | 1014.9 |
| 20260905194312 | 102 | 223 | 7.8 | 8.7 | 0.00 | 0.00 | 0.00 | 36 | 1015.0 |